Regional Weather Roundup
Issued by NWS

Home | Current Version | Previous Version | Text Only | Print | Product List | Glossary Off
Versions: 1 2 3 4 5 6 7 8 9 10 11 12 13 14 15 16 17 18 19 20 21 22 23 24 25 26 27 28 29 30 31 32 33 34 35 36 37 38 39 40 41 42 43 44 45 46 47 48 49 50

000
ASUS43 KLOT 040012
RWRIL

ILLINOIS REGIONAL WEATHER ROUNDUP
NATIONAL WEATHER SERVICE CHICAGO/ROMEOVILLE IL
700 PM CDT MON AUG 03 2015

NOTE: "FAIR" INDICATES FEW OR NO CLOUDS BELOW 12,000 FEET WITH NO
SIGNIFICANT WEATHER AND/OR OBSTRUCTIONS TO VISIBILITY.

* THESE STATIONS ARE NOT UNDER NWS QUALITY CONTROL. THEY ALSO MAY NOT
  REPORT WEATHER SUCH AS PRECIPITATION OR FOG.

ILZ001-002-007-009-015-016-024-040100-
NORTHWEST ILLINOIS

CITY           SKY/WX    TMP DP  RH WIND       PRES   REMARKS
MOLINE         SUNNY     79  53  40 W10       29.88F
6HR MIN TEMP:  79; 6HR MAX TEMP:  83;

STERLING*      SUNNY     79  54  41 NW12      29.86S
SAVANNA*       SUNNY     79  52  38 NW7       29.88S
$$

ILZ003-004-008-010-011-017-018-040100-
NORTH CENTRAL ILLINOIS

CITY           SKY/WX    TMP DP  RH WIND       PRES   REMARKS
ROCKFORD       SUNNY     79  50  36 NW10      29.89R
6HR MIN TEMP:  79; 6HR MAX TEMP:  82;

FREEPORT*      SUNNY     76  52  44 W7        29.90S
ROCHELLE*      SUNNY     76  54  46 W8        29.89S
DE KALB*       SUNNY     76  53  43 W9        29.89S
PERU*          SUNNY     77  52  42 NW7       29.89S
$$

ILZ005-006-012>014-019>023-040100-
NORTHEAST ILLINOIS

CITY           SKY/WX    TMP DP  RH WIND       PRES   REMARKS
CHICAGO-OHARE  MOSUNNY   78  50  37 W14G21    29.86R
6HR MIN TEMP:  78; 6HR MAX TEMP:  82;

CHICAGO-MIDWAY MOSUNNY   81  48  31 W14G21    29.86R HX  80
6HR MIN TEMP:  81; 6HR MAX TEMP:  84;

AURORA         SUNNY     76  56  49 W8        29.88S
6HR MIN TEMP:  76; 6HR MAX TEMP:  80;

LANSING*       SUNNY     78  49  35 NW9       29.87R
JOLIET*        SUNNY     80  53  39 W9        29.88S HX  80
WAUKEGAN       SUNNY     76  51  41 W3        29.85R
6HR MIN TEMP:  76; 6HR MAX TEMP:  79;

DUPAGE AIRPORT SUNNY     77  51  40 W7        29.87S
6HR MIN TEMP:  77; 6HR MAX TEMP:  80;

KANKAKEE*      SUNNY     79  54  41 NW7       29.88R
WHEELING       SUNNY     79  47  32 W12       29.87R
6HR MIN TEMP:  79; 6HR MAX TEMP:  82;

MORRIS*        SUNNY     76  58  52 NW6       29.87S
ROMEOVILLE*    SUNNY     76  51  41 W8        29.87F
NORTHERLY ISL    N/A     80  45  28 W10         N/A
$$

LMZ740>746-040100-
SOUTHERN LAKE MICHIGAN

STATION/POSITION SKY/WX   TEMP    WIND        PRES    VSBY  WAVE
                          AIR SEA DIR/SP/G                  HT/PER
                          (F)     (DEG/KT/KT) (MB)    (MI)  (FT/S)
HARRISON CRIB              79     290/ 12/ 17   N/A
BURNHAM HARBOR             79     280/ 11/ 13   N/A
CALUMET HARBOR             81     280/  6/ 13   N/A
BURNS HARBOR               78      50/  5/  6 1011.5S
MICHIGAN CITY              77     360/  2/  3   N/A
MICHIGAN CITY 6N           77 75   CALM  /  2   N/A           1/ 4
ST. JOSEPH                 73 73   30/  8/ 10   N/A           2/ 4
$$

ILZ025>027-034>036-040-047-049-050-058-095>099-040100-
WEST-CENTRAL ILLINOIS

CITY           SKY/WX    TMP DP  RH WIND       PRES   REMARKS
QUINCY         SUNNY     81  65  58 NW5       29.91S HX  83
GALESBURG*     SUNNY     77  60  57 W3        29.91R
MACOMB*        SUNNY     79  61  54 NW6       29.93S HX  80
JACKSONVILLE*  SUNNY     82  69  66 NW3       29.90S HX  85
PITTSFIELD*    SUNNY     82  64  55 W3        29.92S HX  83
$$

ILZ028>032-037-038-041>044-048-051>054-059>061-040100-
CENTRAL ILLINOIS

CITY           SKY/WX    TMP DP  RH WIND       PRES   REMARKS
PONTIAC        SUNNY     76  61  59 W6        29.90S
BLOOMINGTON    SUNNY     80  59  48 N8        29.90F HX  81
DECATUR        SUNNY     82  61  48 NW9       29.89S HX  83
PEORIA         SUNNY     81  58  45 NW5       29.89S HX  81
6HR MIN TEMP:  81; 6HR MAX TEMP:  85;

LACON*         SUNNY     78  56  47 NW5       29.87F
LINCOLN*       SUNNY     82  60  47 CALM      29.88S HX  82
SPRINGFIELD    SUNNY     81  66  60 W5        29.90R HX  83
6HR MIN TEMP:  81; 6HR MAX TEMP:  86;

TAYLORVILLE    SUNNY     79  68  69 NW3       29.89R HX  81
$$

ILZ033-039-045-046-055>057-062-063-040100-
EAST-CENTRAL ILLINOIS

CITY           SKY/WX    TMP DP  RH WIND       PRES   REMARKS
CHAMPAIGN      MOSUNNY   79  63  57 NW6       29.89S HX  80
DANVILLE*      SUNNY     77  63  61 NW8       29.86R
RANTOUL*       SUNNY     81  63  54 NW8       29.89R HX  82
MATTOON        SUNNY     83  63  50 NW9       29.88S HX  84
PARIS*         SUNNY     82  65  57 NW8       29.88S HX  83
$$

ILZ079-100>102-040100-
SOUTHWEST ILLINOIS

CITY           SKY/WX    TMP DP  RH WIND       PRES   REMARKS
ALTON          SUNNY     82  66  57 NW6       29.90R HX  85
BELLEVILLE     SUNNY     88  71  57 N3        29.87S HX  94
CAHOKIA*       SUNNY     91  68  46 CALM      29.88S HX  95
SPARTA*        MOSUNNY   88  70  54 NW3       29.90S HX  93
$$

ILZ064>066-069>071-074>076-080>082-084>086-088>090-092>094-040100-
SOUTH-CENTRAL ILLINOIS

CITY           SKY/WX    TMP DP  RH WIND       PRES   REMARKS
CARBONDALE     MOSUNNY   88  73  61 NW3       29.88F HX  95
6HR MIN TEMP:  88; 6HR MAX TEMP:  92;

CAIRO*         MOSUNNY   87  72  61 W5        29.89S HX  93
EFFINGHAM*     SUNNY     84  60  44 W7        29.90R HX  84
MARION         MOSUNNY   88  73  62 CALM      29.90S HX  96
MT. VERNON     SUNNY     88  68  51 CALM      29.89S HX  91
CENTRALIA*     SUNNY     85  65  52 NW7       29.90R HX  86
SALEM*         SUNNY     86  65  49 NW6       29.89S HX  88
METROPOLIS*    SUNNY     89  76  65 CALM      29.90S HX  99
$$

ILZ067-068-072-073-078-083-087-091-040100-
SOUTHEAST ILLINOIS

CITY           SKY/WX    TMP DP  RH WIND       PRES   REMARKS
LAWRENCEVILLE  MOSUNNY   86  68  54 NW9       29.87R HX  89
FLORA*         MOSUNNY   85  65  51 NW10      29.89R HX  87
FAIRFIELD*     SUNNY     85  70  60 CALM      29.87S HX  89
HARRISBURG*    SUNNY     89  70  54 CALM      29.89S HX  94
ROBINSON*      SUNNY     83  68  60 NW6       29.87S HX  85
CARMI*         SUNNY     86  64  47 W8        29.87S HX  87
$$

ABBREVIATIONS USED IN REMARKS
   TC - TEMPERATURE IN CELSIUS
  WCI - WIND CHILL INDEX
   HX - HEAT INDEX
  VSB - VISIBILITY
$$



USA.gov is the U.S. government's official web portal to all federal, state and local government web resources and services.